Observations for Trim Patrick St
| Time | AQI | Temp °C | Hum % | Pres Pa | CO μg/m³ | H₂S μg/m³ | NO μg/m³ | NO₂ μg/m³ | O₃ μg/m³ | SO₂ μg/m³ | PM1 μg/m³ | PM2.5 μg/m³ | PM10 μg/m³ |
|---|---|---|---|---|---|---|---|---|---|---|---|---|---|
| Wednesday 5 August 2026 | |||||||||||||
| 08:14 | 2 | 16.2 | 70 | 38,460 | 0.18 | 0 | 2.69 | 9.34 | 39.53 | 0 | 2 | 6.61 | 7.27 |
| 08:13 | 2 | 16.2 | 70 | 38,460 | 0.17 | 0 | 2.67 | 6.68 | 48.35 | 0 | 2 | 5.17 | 5.69 |
| 08:11 | 2 | 16.2 | 70 | 38,460 | 0.18 | 0 | 2.6 | 5.99 | 46.16 | 0 | 2 | 5.16 | 5.67 |
| 08:10 | 2 | 16.1 | 70 | 38,460 | 0.2 | 0 | 2.62 | 8.5 | 43.46 | 0 | 2 | 5.15 | 5.66 |
| 08:06 | 2 | 16.1 | 70 | 38,460 | 0.2 | 0 | 2.55 | 7.8 | 44.82 | 0 | 2 | 5.13 | 5.65 |
| 08:03 | 2 | 16 | 71 | 38,460 | 0.18 | 0 | 2.6 | 8.36 | 52.79 | 0 | 2.86 | 6.55 | 7.2 |
| 08:02 | 2 | 15.9 | 71 | 38,460 | 0.19 | 0 | 2.71 | 8.71 | 47.08 | 0 | 2 | 5.11 | 5.62 |
| 08:01 | 2 | 15.9 | 71 | 38,460 | 0.18 | 0 | 2.73 | 7.65 | 49.68 | 0 | 2 | 5.1 | 5.61 |
| 08:00 | 2 | 15.9 | 71 | 38,460 | 0.19 | 0 | 2.81 | 8.47 | 48.75 | 0 | 2 | 5.09 | 5.6 |
| 07:59 | 2 | 15.9 | 71 | 38,460 | 0.17 | 0 | 2.79 | 7.52 | 51.76 | 0 | 2 | 5.09 | 5.6 |
| 07:58 | 2 | 15.8 | 71 | 38,460 | 0.2 | 0 | 2.79 | 7.9 | 48.16 | 0 | 2 | 5.81 | 6.39 |
| 07:57 | 2 | 15.8 | 71 | 38,460 | 0.17 | 0 | 2.79 | 8.22 | 52.84 | 0 | 2 | 5.08 | 5.59 |
| 07:56 | 2 | 15.8 | 71 | 38,460 | 0.19 | 0 | 2.76 | 8.09 | 48.57 | 0 | 2 | 5.08 | 5.58 |
| 07:55 | 2 | 15.7 | 71 | 38,460 | 0.19 | 0 | 2.71 | 8.76 | 47.68 | 0 | 2 | 5.07 | 5.58 |
| 07:54 | 2 | 15.7 | 71 | 38,460 | 0.17 | 0 | 2.69 | 8.93 | 59.06 | 0 | 2 | 5.06 | 5.57 |
| 07:53 | 2 | 15.7 | 72 | 38,460 | 0.17 | 0 | 2.73 | 7.31 | 44.49 | 0 | 2 | 5.06 | 5.56 |
| 07:52 | 2 | 15.7 | 72 | 38,460 | 0.17 | 0 | 2.74 | 8.65 | 50.19 | 0 | 2 | 5.06 | 5.56 |
| 07:51 | 2 | 15.6 | 72 | 38,460 | 0.17 | 0 | 2.78 | 8.1 | 55.55 | 0 | 2 | 5.05 | 5.56 |
| 07:50 | 2 | 15.6 | 72 | 38,460 | 0.16 | 0 | 2.88 | 8.99 | 53.15 | 0 | 2 | 5.06 | 5.56 |
| 07:49 | 2 | 15.6 | 72 | 38,460 | 0.19 | 0 | 2.78 | 9.82 | 54.53 | 0 | 2 | 5.76 | 6.34 |